Schneifelwetter: Wetterstation Hallschlag, 537 m . NN
Wetterdaten: Dienstag, 14.12.2010
Datum Zeit Temp. A. Feuchte A. Luftdruck Regen Wind Richtung Richtung Sonnenschein Helligkeit T Regen Taupunkt Windchill
14.12.2010 00:01 -5,1 C 95 % 1016 hPa 0,0 l/m 15,5 km/h (3 Bft) N 5 0 min 0 lux 0,00 min -5,8 C -13,5 C
14.12.2010 00:16 -4,6 C 96 % 1016 hPa 0,0 l/m 15,5 km/h (3 Bft) N 5 0 min 0 lux 0,00 min -5,1 C -12,9 C
14.12.2010 00:31 -4,5 C 96 % 1016 hPa 0,0 l/m 19,6 km/h (3 Bft) N 5 0 min 0 lux 0,00 min -5,0 C -15,2 C
14.12.2010 00:46 -4,4 C 96 % 1016 hPa 0,0 l/m 16,3 km/h (3 Bft) N 5 0 min 0 lux 0,00 min -4,9 C -13,2 C
14.12.2010 01:01 -4,4 C 96 % 1016 hPa 0,0 l/m 17,4 km/h (3 Bft) N 5 0 min 0 lux 0,00 min -4,9 C -13,9 C
14.12.2010 01:16 -4,3 C 96 % 1016 hPa 0,0 l/m 16,6 km/h (3 Bft) N 5 0 min 0 lux 0,00 min -4,8 C -13,2 C
14.12.2010 01:31 -4,3 C 96 % 1016 hPa 0,0 l/m 12,8 km/h (3 Bft) N 5 0 min 0 lux 0,00 min -4,8 C -10,6 C
14.12.2010 01:46 -4,2 C 96 % 1016 hPa 0,0 l/m 14,5 km/h (3 Bft) N 5 0 min 0 lux 0,00 min -4,7 C -11,7 C
14.12.2010 02:01 -4,1 C 96 % 1016 hPa 0,0 l/m 16,5 km/h (3 Bft) N 5 0 min 0 lux 0,00 min -4,6 C -12,9 C
14.12.2010 02:16 -4,0 C 96 % 1016 hPa 0,0 l/m 16,8 km/h (3 Bft) N 5 0 min 0 lux 0,00 min -4,5 C -13,0 C
14.12.2010 02:31 -4,0 C 97 % 1016 hPa 0,0 l/m 17,7 km/h (3 Bft) N 5 0 min 0 lux 0,00 min -4,4 C -13,5 C
14.12.2010 02:46 -3,9 C 97 % 1016 hPa 0,0 l/m 21,6 km/h (4 Bft) N 5 0 min 0 lux 0,00 min -4,3 C -15,5 C
14.12.2010 03:01 -4,0 C 95 % 1016 hPa 0,0 l/m 25,4 km/h (4 Bft) N 5 0 min 0 lux 0,00 min -4,7 C -17,3 C
14.12.2010 03:16 -4,0 C 95 % 1017 hPa 0,0 l/m 24,3 km/h (4 Bft) N 5 0 min 0 lux 0,00 min -4,7 C -16,8 C
14.12.2010 03:31 -4,1 C 94 % 1017 hPa 0,0 l/m 23,1 km/h (4 Bft) N 5 0 min 0 lux 0,00 min -4,9 C -16,4 C
14.12.2010 03:46 -4,2 C 94 % 1017 hPa 0,0 l/m 27,6 km/h (4 Bft) N 5 0 min 0 lux 0,00 min -5,0 C -18,4 C
14.12.2010 04:01 -4,3 C 95 % 1017 hPa 0,0 l/m 23,5 km/h (4 Bft) N 5 0 min 0 lux 0,00 min -5,0 C -16,9 C
14.12.2010 04:16 -4,7 C 96 % 1017 hPa 0,0 l/m 33,0 km/h (5 Bft) N 5 0 min 0 lux 0,00 min -5,2 C -21,0 C
14.12.2010 04:31 -5,0 C 97 % 1017 hPa 0,0 l/m 33,0 km/h (5 Bft) N 5 0 min 0 lux 0,00 min -5,4 C -21,4 C
14.12.2010 04:46 -5,1 C 97 % 1017 hPa 0,0 l/m 25,6 km/h (4 Bft) N 5 0 min 0 lux 0,00 min -5,5 C -18,9 C
14.12.2010 05:01 -5,4 C 97 % 1018 hPa 0,0 l/m 27,3 km/h (4 Bft) N 5 0 min 0 lux 0,00 min -5,8 C -20,0 C
14.12.2010 05:16 -5,5 C 97 % 1018 hPa 0,0 l/m 24,0 km/h (4 Bft) N 5 0 min 0 lux 0,00 min -5,9 C -18,7 C
14.12.2010 05:31 -5,6 C 97 % 1018 hPa 0,0 l/m 33,0 km/h (5 Bft) N 5 0 min 0 lux 0,00 min -6,0 C -22,3 C
14.12.2010 05:46 -5,7 C 97 % 1018 hPa 0,0 l/m 29,0 km/h (5 Bft) N 5 0 min 0 lux 0,00 min -6,1 C -21,1 C
14.12.2010 06:01 -5,8 C 97 % 1018 hPa 0,0 l/m 29,0 km/h (5 Bft) N 5 0 min 0 lux 0,00 min -6,2 C -21,2 C
14.12.2010 06:16 -5,9 C 97 % 1019 hPa 0,0 l/m 27,0 km/h (4 Bft) N 5 0 min 0 lux 0,00 min -6,3 C -20,6 C
14.12.2010 06:31 -5,9 C 97 % 1019 hPa 0,0 l/m 29,6 km/h (5 Bft) N 5 0 min 0 lux 0,00 min -6,3 C -21,6 C
14.12.2010 06:46 -6,0 C 97 % 1019 hPa 0,0 l/m 26,8 km/h (4 Bft) N 5 0 min 0 lux 0,00 min -6,4 C -20,6 C
14.12.2010 07:01 -6,0 C 97 % 1019 hPa 0,0 l/m 24,6 km/h (4 Bft) N 5 0 min 0 lux 0,00 min -6,4 C -19,7 C
14.12.2010 07:16 -6,1 C 97 % 1019 hPa 0,0 l/m 26,3 km/h (4 Bft) N 5 0 min 0 lux 0,00 min -6,5 C -20,5 C
14.12.2010 07:31 -6,2 C 97 % 1020 hPa 0,0 l/m 26,8 km/h (4 Bft) N 5 0 min 0 lux 0,00 min -6,6 C -20,9 C
14.12.2010 07:47 -6,3 C 97 % 1020 hPa 0,0 l/m 22,4 km/h (4 Bft) N 5 0 min 0 lux 0,00 min -6,7 C -19,0 C
14.12.2010 08:02 -6,3 C 97 % 1020 hPa 0,0 l/m 25,9 km/h (4 Bft) N 5 0 min 0 lux 0,00 min -6,7 C -20,6 C
14.12.2010 08:17 -6,4 C 97 % 1020 hPa 0,0 l/m 24,7 km/h (4 Bft) N 5 0 min 102 lux 0,00 min -6,8 C -20,3 C
14.12.2010 08:32 -6,6 C 96 % 1020 hPa 0,0 l/m 25,3 km/h (4 Bft) N 5 0 min 346 lux 0,00 min -7,1 C -20,8 C
14.12.2010 08:47 -6,4 C 96 % 1021 hPa 0,0 l/m 25,4 km/h (4 Bft) N 5 0 min 750 lux 0,00 min -6,9 C -20,6 C
14.12.2010 09:02 -6,4 C 96 % 1021 hPa 0,0 l/m 23,0 km/h (4 Bft) N 5 0 min 1,54 klux 0,00 min -6,9 C -19,5 C
14.12.2010 09:17 -6,5 C 95 % 1021 hPa 0,0 l/m 26,1 km/h (4 Bft) N 5 0 min 2,71 klux 0,00 min -7,2 C -21,0 C
14.12.2010 09:32 -6,3 C 95 % 1021 hPa 0,0 l/m 24,0 km/h (4 Bft) N 5 0 min 3,22 klux 0,00 min -7,0 C -19,8 C
14.12.2010 09:47 -6,3 C 95 % 1021 hPa 0,0 l/m 28,0 km/h (4 Bft) N 5 0 min 2,95 klux 0,00 min -7,0 C -21,5 C
14.12.2010 10:02 -6,2 C 95 % 1021 hPa 0,0 l/m 23,8 km/h (4 Bft) N 5 0 min 6,13 klux 0,00 min -6,9 C -19,6 C
14.12.2010 10:17 -5,9 C 94 % 1022 hPa 0,0 l/m 16,1 km/h (3 Bft) N 5 0 min 7,80 klux 0,00 min -6,7 C -14,9 C
14.12.2010 10:32 -5,9 C 94 % 1022 hPa 0,0 l/m 21,8 km/h (4 Bft) N 5 0 min 7,11 klux 0,00 min -6,7 C -18,2 C
14.12.2010 10:47 -5,7 C 93 % 1022 hPa 0,0 l/m 18,0 km/h (3 Bft) N 5 0 min 10,6 klux 0,00 min -6,6 C -15,8 C
14.12.2010 11:02 -5,5 C 92 % 1022 hPa 0,0 l/m 18,8 km/h (3 Bft) N 5 0 min 16,6 klux 0,00 min -6,6 C -16,1 C
14.12.2010 11:17 -5,4 C 91 % 1022 hPa 0,0 l/m 23,1 km/h (4 Bft) N 5 0 min 15,7 klux 0,00 min -6,6 C -18,2 C
14.12.2010 11:32 -5,1 C 90 % 1022 hPa 0,0 l/m 25,7 km/h (4 Bft) N 5 0 min 17,3 klux 0,00 min -6,5 C -18,9 C
14.12.2010 11:47 -5,5 C 89 % 1023 hPa 0,0 l/m 27,4 km/h (4 Bft) N 10 0 min 26,1 klux 0,00 min -7,0 C -20,2 C
14.12.2010 12:02 -5,6 C 90 % 1023 hPa 0,0 l/m 25,1 km/h (4 Bft) N 5 0 min 27,8 klux 0,00 min -7,0 C -19,4 C
14.12.2010 12:17 -5,6 C 89 % 1023 hPa 0,0 l/m 21,4 km/h (4 Bft) N 5 0 min 17,3 klux 0,00 min -7,1 C -17,6 C
14.12.2010 12:32 -6,3 C 86 % 1023 hPa 0,0 l/m 26,3 km/h (4 Bft) N 5 0 min 19,6 klux 0,00 min -8,2 C -20,8 C
14.12.2010 12:47 -6,4 C 86 % 1023 hPa 0,0 l/m 24,9 km/h (4 Bft) N 5 0 min 38,0 klux 0,00 min -8,3 C -20,3 C
14.12.2010 13:02 -6,6 C 86 % 1023 hPa 0,0 l/m 23,8 km/h (4 Bft) N 10 0 min 18,0 klux 0,00 min -8,5 C -20,1 C
14.12.2010 13:17 -7,0 C 87 % 1023 hPa 0,0 l/m 25,0 km/h (4 Bft) N 5 0 min 37,7 klux 0,00 min -8,8 C -21,2 C
14.12.2010 13:32 -6,9 C 87 % 1023 hPa 0,0 l/m 21,0 km/h (4 Bft) N 5 0 min 37,1 klux 0,00 min -8,7 C -19,1 C
14.12.2010 13:47 -7,0 C 87 % 1023 hPa 0,0 l/m 22,3 km/h (4 Bft) N 5 0 min 35,8 klux 0,00 min -8,8 C -19,9 C
14.12.2010 14:02 -6,9 C 87 % 1023 hPa 0,0 l/m 20,3 km/h (4 Bft) N 5 0 min 35,9 klux 0,00 min -8,7 C -18,7 C
14.12.2010 14:17 -6,9 C 87 % 1023 hPa 0,0 l/m 17,5 km/h (3 Bft) N 5 0 min 33,2 klux 0,00 min -8,7 C -17,0 C
14.12.2010 14:32 -6,8 C 88 % 1023 hPa 0,0 l/m 19,0 km/h (3 Bft) N 5 0 min 13,5 klux 0,00 min -8,4 C -17,8 C
14.12.2010 14:46 -6,8 C 90 % 1023 hPa 0,0 l/m 19,6 km/h (3 Bft) N 5 0 min 8,07 klux 0,00 min -8,2 C -18,2 C
14.12.2010 15:01 -6,7 C 91 % 1023 hPa 0,0 l/m 24,3 km/h (4 Bft) N 10 0 min 7,84 klux 0,00 min -7,9 C -20,5 C
14.12.2010 15:16 -6,3 C 92 % 1023 hPa 0,0 l/m 24,2 km/h (4 Bft) N 5 0 min 5,56 klux 0,00 min -7,4 C -19,9 C
14.12.2010 15:32 -6,3 C 92 % 1024 hPa 0,0 l/m 27,0 km/h (4 Bft) N 5 0 min 5,61 klux 0,00 min -7,4 C -21,1 C
14.12.2010 15:47 -6,3 C 92 % 1024 hPa 0,0 l/m 22,6 km/h (4 Bft) N 5 0 min 5,43 klux 0,00 min -7,4 C -19,1 C
14.12.2010 16:02 -6,3 C 92 % 1024 hPa 0,0 l/m 20,9 km/h (4 Bft) N 10 0 min 2,55 klux 0,00 min -7,4 C -18,3 C
14.12.2010 16:16 -6,1 C 92 % 1024 hPa 0,0 l/m 19,1 km/h (3 Bft) N 5 0 min 1,68 klux 0,00 min -7,2 C -17,0 C
14.12.2010 16:31 -6,1 C 92 % 1024 hPa 0,0 l/m 18,0 km/h (3 Bft) N 5 0 min 1,55 klux 0,00 min -7,2 C -16,4 C
14.12.2010 16:46 -6,2 C 93 % 1024 hPa 0,0 l/m 14,0 km/h (3 Bft) N 5 0 min 347 lux 0,00 min -7,1 C -13,8 C
14.12.2010 17:01 -6,3 C 93 % 1024 hPa 0,0 l/m 23,5 km/h (4 Bft) N 10 0 min 65 lux 0,00 min -7,2 C -19,6 C
14.12.2010 17:17 -6,4 C 93 % 1024 hPa 0,0 l/m 22,1 km/h (4 Bft) N 5 0 min 13 lux 0,00 min -7,3 C -19,0 C
14.12.2010 17:32 -6,5 C 93 % 1024 hPa 0,0 l/m 18,3 km/h (3 Bft) N 5 0 min 0 lux 0,00 min -7,4 C -17,0 C
14.12.2010 17:47 -6,5 C 93 % 1025 hPa 0,0 l/m 16,3 km/h (3 Bft) N 5 0 min 0 lux 0,00 min -7,4 C -15,8 C
14.12.2010 18:01 -6,5 C 93 % 1025 hPa 0,0 l/m 24,0 km/h (4 Bft) N 5 0 min 0 lux 0,00 min -7,4 C -20,1 C
14.12.2010 18:16 -6,5 C 93 % 1025 hPa 0,0 l/m 30,5 km/h (5 Bft) N 5 0 min 0 lux 0,00 min -7,4 C -22,7 C
14.12.2010 18:31 -6,5 C 93 % 1025 hPa 0,0 l/m 25,5 km/h (4 Bft) N 5 0 min 0 lux 0,00 min -7,4 C -20,7 C
14.12.2010 18:47 -6,5 C 92 % 1025 hPa 0,0 l/m 29,4 km/h (5 Bft) N 5 0 min 0 lux 0,00 min -7,6 C -22,3 C
14.12.2010 19:02 -6,6 C 92 % 1025 hPa 0,0 l/m 28,5 km/h (4 Bft) N 5 0 min 0 lux 0,00 min -7,7 C -22,1 C
14.12.2010 19:17 -6,6 C 92 % 1025 hPa 0,0 l/m 20,0 km/h (4 Bft) N 5 0 min 0 lux 0,00 min -7,7 C -18,2 C
14.12.2010 19:32 -6,6 C 92 % 1025 hPa 0,0 l/m 18,3 km/h (3 Bft) N 5 0 min 0 lux 0,00 min -7,7 C -17,2 C
14.12.2010 19:46 -6,6 C 91 % 1025 hPa 0,0 l/m 29,1 km/h (5 Bft) N 5 0 min 0 lux 0,00 min -7,8 C -22,4 C
14.12.2010 20:01 -6,6 C 91 % 1025 hPa 0,0 l/m 25,5 km/h (4 Bft) N 5 0 min 0 lux 0,00 min -7,8 C -20,9 C
14.12.2010 20:16 -6,6 C 92 % 1025 hPa 0,0 l/m 22,1 km/h (4 Bft) N 5 0 min 0 lux 0,00 min -7,7 C -19,3 C
14.12.2010 20:32 -6,6 C 92 % 1026 hPa 0,0 l/m 20,8 km/h (4 Bft) N 5 0 min 0 lux 0,00 min -7,7 C -18,6 C
14.12.2010 20:47 -6,6 C 92 % 1026 hPa 0,0 l/m 24,9 km/h (4 Bft) N 5 0 min 0 lux 0,00 min -7,7 C -20,6 C
14.12.2010 21:02 -6,7 C 93 % 1025 hPa 0,0 l/m 23,3 km/h (4 Bft) N 5 0 min 0 lux 0,00 min -7,6 C -20,0 C
14.12.2010 21:16 -6,7 C 93 % 1026 hPa 0,0 l/m 27,0 km/h (4 Bft) N 5 0 min 0 lux 0,00 min -7,6 C -21,7 C
14.12.2010 21:31 -6,7 C 93 % 1026 hPa 0,0 l/m 25,0 km/h (4 Bft) N 5 0 min 0 lux 0,00 min -7,6 C -20,8 C
14.12.2010 21:46 -6,7 C 93 % 1026 hPa 0,0 l/m 23,6 km/h (4 Bft) N 5 0 min 0 lux 0,00 min -7,6 C -20,2 C
14.12.2010 22:02 -6,9 C 93 % 1026 hPa 0,0 l/m 21,8 km/h (4 Bft) N 5 0 min 0 lux 0,00 min -7,8 C -19,5 C
14.12.2010 22:17 -7,0 C 93 % 1026 hPa 0,0 l/m 15,3 km/h (3 Bft) N 5 0 min 0 lux 0,00 min -7,9 C -15,7 C
14.12.2010 22:32 -7,0 C 92 % 1026 hPa 0,0 l/m 17,9 km/h (3 Bft) N 5 0 min 0 lux 0,00 min -8,1 C -17,4 C
14.12.2010 22:47 -7,1 C 92 % 1026 hPa 0,0 l/m 21,1 km/h (4 Bft) N 5 0 min 0 lux 0,00 min -8,2 C -19,4 C
14.12.2010 23:01 -7,2 C 92 % 1026 hPa 0,0 l/m 18,1 km/h (3 Bft) N 5 0 min 0 lux 0,00 min -8,3 C -17,8 C
14.12.2010 23:16 -7,3 C 91 % 1026 hPa 0,0 l/m 18,4 km/h (3 Bft) N 5 0 min 0 lux 0,00 min -8,5 C -18,1 C
14.12.2010 23:31 -7,4 C 91 % 1026 hPa 0,0 l/m 16,8 km/h (3 Bft) N 5 0 min 0 lux 0,00 min -8,6 C -17,2 C
14.12.2010 23:47 -7,4 C 91 % 1026 hPa 0,0 l/m 18,3 km/h (3 Bft) N 5 0 min 0 lux 0,00 min -8,6 C -18,2 C
_ Min-Zeit 23:31 12:32 00:01 - 01:31 - - - - - 13:17 18:16
Minimum _ -7,4 C 86 % 1016 hPa - 12,8 km/h (3 Bft) - - - - - -8,8 C -22,7 C
_ Max-Zeit 02:46 02:31 20:32 00:01 04:16 - - 00:01 12:47 00:01 02:46 01:31
Maximum _ -3,9 C 97 % 1026 hPa 0,0 l/m 33,0 km/h
N (5 Bft)
- - 0 min 38,0 klux 0,00 min -4,3 C -10,6 C
Durchschnitt _ -6,0 C 93 % 1022 hPa #0,0 l/m 22,7 km/h (4 Bft) N - #0 min. 4,91 klux #0 min. -6,9 C -18,5 C